Orbital Elements at Epoch 2459000.5 (2020-May-31.0) TDB
Reference: JPL 20 (heliocentric ecliptic J2000)
Element | Value | Uncertainty (1-sigma) | Units |
e | .05585007875396982 | 8.6772e-08 | |
a | 3.070800674999519 | 7.5841e-08 | au |
q | 2.899296215463052 | 3.0645e-07 | au |
i | 11.83488462726958 | 8.7893e-06 | deg |
node | 299.237228062553 | 2.815e-05 | deg |
peri | 164.7299703163537 | 6.6581e-05 | deg |
M | 164.4801564955164 | 5.5635e-05 | deg |
tp | 2458102.478203760917 (2017-Dec-14.97820376) | 0.00031289 | TDB |
period | 1965.512761746931 5.38 | 7.2815e-05 1.994e-07 | d yr |
n | .1831583121750047 | 6.7853e-09 | deg/d |
Q | 3.242305134535986 | 8.0077e-08 | au |
|
| | Orbit Determination Parameters
Additional Information
|